CDT,Max TemperatureF,Mean TemperatureF,Min TemperatureF,Max Dew PointF,MeanDew PointF,Min DewpointF,Max Humidity, Mean Humidity, Min Humidity, Max Sea Level PressureIn, Mean Sea Level PressureIn, Min Sea Level PressureIn, Max VisibilityMiles, Mean VisibilityMiles, Min VisibilityMiles, Max Wind SpeedMPH, Mean Wind SpeedMPH, Max Gust SpeedMPH,PrecipitationIn, CloudCover, Events, WindDirDegrees
2013-6-1,75,68,61,65,60,53,93,71,49,29.87,29.74,29.69,10,10,10,22,11,30,T,4,,236
2013-6-2,64,60,56,57,52,45,84,72,60,30.05,29.98,29.86,10,10,10,18,10,22,0.00,8,,316
2013-6-3,69,60,50,51,47,44,80,65,49,30.11,30.05,29.99,10,10,10,10,5,14,0.00,3,,82
2013-6-4,73,63,53,56,52,49,83,68,53,30.10,30.04,29.99,10,10,10,16,7,21,0.00,0,,126
2013-6-5,76,66,56,62,58,54,86,70,54,30.03,29.95,29.88,10,9,7,10,4,14,T,2,Rain,152
2013-6-6,75,67,59,63,58,50,93,69,44,29.90,29.88,29.85,10,8,2,17,8,23,0.00,5,Rain,329
2013-6-7,74,66,57,57,55,52,93,70,46,29.95,29.92,29.90,10,8,2,16,7,21,0.00,4,,352
2013-6-8,78,67,56,55,53,52,86,63,40,29.95,29.92,29.87,10,10,9,13,5,22,0.00,1,,163
2013-6-9,74,68,62,63,59,54,93,78,63,29.89,29.82,29.75,10,9,2,16,8,22,0.32,4,Rain-Thunderstorm,181
2013-6-10,76,69,62,61,60,58,93,74,54,29.89,29.82,29.75,10,10,6,14,6,17,0.01,6,Rain,282
2013-6-11,89,75,60,70,65,58,90,68,46,29.93,29.86,29.80,10,10,10,17,8,23,0.00,0,Thunderstorm,187
2013-6-12,95,83,71,72,69,63,79,63,46,29.89,29.77,29.67,10,10,10,29,13,39,0.00,1,,209
2013-6-13,84,75,65,65,58,52,81,58,34,30.00,29.92,29.76,10,9,5,30,10,38,T,3,Rain,336
2013-6-14,80,72,63,63,59,55,78,63,48,30.11,30.02,29.88,10,10,6,14,7,17,0.03,1,Rain,131
2013-6-15,89,78,67,73,66,60,87,72,56,30.08,29.97,29.88,10,9,2,31,8,31,0.58,5,Rain-Thunderstorm,200
2013-6-16,82,74,66,70,67,64,93,80,67,29.99,29.95,29.90,10,10,8,15,4,21,0.01,5,Rain,217
2013-6-17,83,74,65,69,66,62,93,72,51,29.96,29.93,29.90,10,8,2,12,4,16,0.00,0,,60
2013-6-18,83,74,65,66,63,61,93,70,47,29.99,29.95,29.90,10,10,4,17,8,21,0.00,0,,315
2013-6-19,83,73,62,61,58,56,84,62,40,30.08,30.04,30.01,10,10,10,9,5,13,0.00,0,,95
2013-6-20,89,78,67,67,64,59,81,64,46,30.09,30.05,30.01,10,10,10,16,8,21,0.00,1,,151
2013-6-21,91,83,75,72,70,66,74,63,52,30.05,30.01,29.93,10,10,10,20,10,24,0.00,1,Thunderstorm,179
2013-6-22,91,82,72,74,70,60,82,67,52,30.04,29.99,29.93,10,10,10,22,11,29,T,0,,181
2013-6-23,88,79,69,71,66,61,97,77,57,30.02,29.97,29.85,10,8,0,46,9,61,0.51,2,Fog-Rain-Thunderstorm,181
2013-6-24,90,80,69,74,69,65,90,75,59,30.04,29.95,29.83,10,10,8,17,9,24,0.00,1,,185
2013-6-25,90,83,75,74,71,68,82,71,59,29.91,29.85,29.78,10,10,10,21,10,25,T,1,,197
2013-6-26,89,80,71,76,71,64,85,72,59,29.80,29.76,29.71,10,10,6,23,8,35,T,4,Rain-Thunderstorm,223
2013-6-27,89,80,70,71,68,65,90,68,46,29.90,29.85,29.80,10,10,10,13,7,17,0.00,0,,294
2013-6-28,87,78,69,67,59,53,84,58,32,29.83,29.77,29.71,10,10,10,28,13,36,0.00,1,,303
2013-6-29,79,71,63,63,61,57,93,74,54,29.79,29.72,29.68,10,10,2,33,12,40,0.16,3,Rain-Thunderstorm,329
2013-6-30,78,71,63,61,60,58,93,74,54,29.98,29.89,29.79,10,9,2,28,11,35,0.17,6,Rain,10